RYR425 RPVE-RPLL

Flight info

Callsign RYR425
Flight time 0h 40m
Altitude 25000
Route MINOR8A MINOR B473 LAIYA LAIYA5R
Aircraft B738/M-SDE2E3FGHIRWXY/LB1

Departure

Time 2026-05-05 13:46
Airport Godofredo P. Ramos Airport (RPVE)

Arrival

Time 2026-05-05 14:26
Airport Ninoy Aquino International Airport (RPLL)
Time Latitude Longitude Altitude Speed Heading
2026-05-05 13:05 11.92650 121.96365 59 ft 0 kts 152°
2026-05-05 13:24 11.92657 121.96362 59 ft 2 kts 153°
2026-05-05 13:24 11.92671 121.96355 59 ft 2 kts 153°
2026-05-05 13:24 11.92685 121.96349 59 ft 2 kts 181°
2026-05-05 13:25 11.92714 121.96368 59 ft 1 kts 246°
2026-05-05 13:25 11.92716 121.96371 59 ft 0 kts 243°
2026-05-05 13:26 11.92716 121.96370 59 ft 0 kts 243°
2026-05-05 13:30 11.92715 121.96368 59 ft 0 kts 243°
2026-05-05 13:30 11.92704 121.96348 59 ft 8 kts 242°
2026-05-05 13:30 11.92674 121.96290 58 ft 10 kts 242°
2026-05-05 13:30 11.92645 121.96230 56 ft 8 kts 252°
2026-05-05 13:31 11.92660 121.96188 55 ft 6 kts 325°
2026-05-05 13:31 11.92695 121.96167 55 ft 5 kts 332°
2026-05-05 13:31 11.92719 121.96156 56 ft 3 kts 333°
2026-05-05 13:31 11.92720 121.96155 56 ft 0 kts 333°
2026-05-05 13:42 11.92736 121.96146 56 ft 9 kts 333°
2026-05-05 13:42 11.92794 121.96113 56 ft 6 kts 311°
2026-05-05 13:42 11.92790 121.96059 54 ft 10 kts 243°
2026-05-05 13:42 11.92752 121.95985 51 ft 13 kts 241°
2026-05-05 13:43 11.92701 121.95890 47 ft 16 kts 241°
2026-05-05 13:43 11.92635 121.95761 41 ft 27 kts 243°
2026-05-05 13:43 11.92543 121.95573 31 ft 28 kts 244°
2026-05-05 13:43 11.92446 121.95383 22 ft 31 kts 242°
2026-05-05 13:44 11.92348 121.95193 19 ft 23 kts 243°
2026-05-05 13:44 11.92292 121.95081 19 ft 8 kts 233°
2026-05-05 13:44 11.92249 121.95041 19 ft 8 kts 220°
2026-05-05 13:44 11.92244 121.95006 18 ft 3 kts 348°
2026-05-05 13:45 11.92265 121.95023 18 ft 4 kts 55°
2026-05-05 13:45 11.92269 121.95028 19 ft 0 kts 57°
2026-05-05 13:45 11.92272 121.95033 19 ft 4 kts 57°
2026-05-05 13:45 11.92386 121.95259 20 ft 78 kts 65°
2026-05-05 13:46 11.92753 121.95992 52 ft 150 kts 63°
2026-05-05 13:46 11.93295 121.97022 611 ft 169 kts 62°
2026-05-05 13:46 11.93726 121.98042 1248 ft 156 kts 76°
2026-05-05 13:46 11.94081 121.99113 1465 ft 167 kts 64°
2026-05-05 13:47 11.94762 122.00212 1799 ft 198 kts 53°
2026-05-05 13:47 11.95696 122.01314 2439 ft 217 kts 48°
2026-05-05 13:47 11.96700 122.02471 3405 ft 218 kts 53°
2026-05-05 13:47 11.97801 122.03602 4129 ft 234 kts 38°
2026-05-05 13:48 11.99239 122.04475 4820 ft 251 kts 30°
2026-05-05 13:48 12.00848 122.05274 5515 ft 266 kts 28°
2026-05-05 13:48 12.02563 122.06103 6368 ft 274 kts 28°
2026-05-05 13:48 12.04288 122.06952 6794 ft 276 kts 28°
2026-05-05 13:49 12.06044 122.07831 6970 ft 280 kts 29°
2026-05-05 13:49 12.07780 122.08707 6975 ft 277 kts 29°
2026-05-05 13:49 12.09515 122.09587 6976 ft 277 kts 29°
2026-05-05 13:49 12.11272 122.10480 7121 ft 293 kts 29°
2026-05-05 13:50 12.13089 122.11401 8262 ft 286 kts 29°
2026-05-05 13:50 12.14879 122.12307 9190 ft 289 kts 28°
2026-05-05 13:50 12.16682 122.13220 10057 ft 292 kts 28°
2026-05-05 13:50 12.18543 122.14165 10746 ft 304 kts 28°
2026-05-05 13:51 12.20463 122.15140 11287 ft 319 kts 28°
2026-05-05 13:51 12.22481 122.16165 11962 ft 329 kts 28°
2026-05-05 13:51 12.24563 122.17219 12816 ft 333 kts 28°
2026-05-05 13:51 12.26635 122.18267 13631 ft 337 kts 28°
2026-05-05 13:52 12.28745 122.19334 14406 ft 343 kts 28°
2026-05-05 13:52 12.30903 122.20428 15178 ft 348 kts 28°
2026-05-05 13:52 12.33094 122.21502 15938 ft 354 kts 25°
2026-05-05 13:52 12.35485 122.22247 16656 ft 362 kts
2026-05-05 13:53 12.38019 122.22139 17374 ft 370 kts 348°
2026-05-05 13:53 12.40421 122.21115 18055 ft 378 kts 330°
2026-05-05 13:53 12.42613 122.19630 18727 ft 383 kts 326°
2026-05-05 13:53 12.44814 122.18056 19416 ft 387 kts 326°
2026-05-05 13:54 12.47046 122.16462 20081 ft 392 kts 326°
2026-05-05 13:54 12.49289 122.14875 20711 ft 396 kts 326°
2026-05-05 13:54 12.51578 122.13267 21372 ft 400 kts 326°
2026-05-05 13:54 12.53888 122.11652 21987 ft 404 kts 326°
2026-05-05 13:55 12.56210 122.10033 22608 ft 407 kts 326°
2026-05-05 13:55 12.58584 122.08382 23241 ft 410 kts 326°
2026-05-05 13:55 12.60972 122.06721 23908 ft 412 kts 326°
2026-05-05 13:55 12.63312 122.05093 24587 ft 411 kts 326°
2026-05-05 13:56 12.65695 122.03436 24872 ft 411 kts 326°
2026-05-05 13:56 12.68073 122.01781 24886 ft 409 kts 326°
2026-05-05 13:56 12.70416 122.00150 24886 ft 405 kts 326°
2026-05-05 13:56 12.72736 121.98534 24890 ft 405 kts 326°
2026-05-05 13:57 12.75081 121.96901 24890 ft 406 kts 326°
2026-05-05 13:57 12.77420 121.95272 24889 ft 405 kts 326°
2026-05-05 13:57 12.79735 121.93659 24889 ft 405 kts 326°
2026-05-05 13:57 12.82080 121.92026 24896 ft 405 kts 326°
2026-05-05 13:58 12.84432 121.90386 24893 ft 406 kts 325°
2026-05-05 13:58 12.86767 121.88759 24891 ft 405 kts 325°
2026-05-05 13:58 12.89112 121.87124 24897 ft 406 kts 325°
2026-05-05 13:58 12.91442 121.85499 24894 ft 405 kts 325°
2026-05-05 13:59 12.96112 121.82241 24895 ft 405 kts 325°
2026-05-05 13:59 12.98461 121.80602 24900 ft 405 kts 325°
2026-05-05 14:00 13.03100 121.77364 24900 ft 404 kts 325°
2026-05-05 14:00 13.04661 121.76273 24897 ft 405 kts 325°
2026-05-05 14:00 13.07788 121.74089 24901 ft 404 kts 326°
2026-05-05 14:00 13.10131 121.72452 24905 ft 404 kts 326°
2026-05-05 14:01 13.12458 121.70825 24905 ft 405 kts 326°
2026-05-05 14:01 13.14793 121.69193 24902 ft 405 kts 325°
2026-05-05 14:01 13.17131 121.67559 24896 ft 405 kts 325°
2026-05-05 14:01 13.19444 121.65941 24899 ft 404 kts 325°
2026-05-05 14:02 13.21787 121.64302 24901 ft 405 kts 325°
2026-05-05 14:02 13.24112 121.62676 24902 ft 404 kts 325°
2026-05-05 14:02 13.26441 121.61046 24904 ft 404 kts 325°
2026-05-05 14:02 13.28745 121.59434 24906 ft 404 kts 325°
2026-05-05 14:03 13.31086 121.57795 24905 ft 404 kts 325°
2026-05-05 14:03 13.33421 121.56159 24908 ft 404 kts 325°
2026-05-05 14:03 13.35757 121.54523 24911 ft 403 kts 325°
2026-05-05 14:03 13.38084 121.52892 24913 ft 404 kts 325°
2026-05-05 14:04 13.40401 121.51269 24913 ft 404 kts 325°
2026-05-05 14:04 13.42733 121.49634 24915 ft 404 kts 325°
2026-05-05 14:04 13.45045 121.48013 24912 ft 399 kts 325°
2026-05-05 14:04 13.47291 121.46439 24738 ft 392 kts 326°
2026-05-05 14:05 13.49532 121.44866 24379 ft 386 kts 326°
2026-05-05 14:05 13.51761 121.43302 23909 ft 383 kts 326°
2026-05-05 14:05 13.53955 121.41761 23420 ft 381 kts 326°
2026-05-05 14:05 13.56129 121.40234 22971 ft 378 kts 326°
2026-05-05 14:06 13.58246 121.38737 22810 ft 366 kts 325°
2026-05-05 14:06 13.60329 121.37214 22300 ft 366 kts 324°
2026-05-05 14:06 13.62392 121.35674 21836 ft 365 kts 324°
2026-05-05 14:06 13.64453 121.34124 21377 ft 363 kts 324°
2026-05-05 14:07 13.66483 121.32596 20922 ft 361 kts 324°
2026-05-05 14:07 13.68509 121.31075 20481 ft 359 kts 324°
2026-05-05 14:07 13.70498 121.29584 20040 ft 357 kts 324°
2026-05-05 14:07 13.72509 121.28079 19603 ft 354 kts 324°
2026-05-05 14:08 13.74506 121.26588 19165 ft 352 kts 324°
2026-05-05 14:08 13.76478 121.25116 18724 ft 349 kts 324°
2026-05-05 14:08 13.78423 121.23663 18300 ft 347 kts 324°
2026-05-05 14:08 13.80385 121.22197 17864 ft 344 kts 324°
2026-05-05 14:09 13.82301 121.20765 17438 ft 342 kts 324°
2026-05-05 14:09 13.84231 121.19323 17014 ft 340 kts 324°
2026-05-05 14:09 13.86135 121.17901 16591 ft 337 kts 324°
2026-05-05 14:09 13.88039 121.16479 16166 ft 335 kts 324°
2026-05-05 14:10 13.89915 121.15077 15753 ft 332 kts 325°
2026-05-05 14:10 13.91790 121.13676 15332 ft 330 kts 325°
2026-05-05 14:10 13.93637 121.12296 14920 ft 327 kts 325°
2026-05-05 14:10 13.95469 121.10928 14507 ft 325 kts 325°
2026-05-05 14:11 13.97284 121.09571 14076 ft 323 kts 325°
2026-05-05 14:11 13.99102 121.08211 13652 ft 321 kts 326°
2026-05-05 14:11 14.00914 121.06856 13239 ft 318 kts 326°
2026-05-05 14:11 14.02690 121.05527 12835 ft 316 kts 326°
2026-05-05 14:12 14.04477 121.04190 12483 ft 311 kts 326°
2026-05-05 14:12 14.06190 121.02907 12314 ft 300 kts 326°
2026-05-05 14:12 14.07864 121.01653 12013 ft 295 kts 326°
2026-05-05 14:12 14.09527 121.00422 11619 ft 294 kts 327°
2026-05-05 14:13 14.11237 120.99264 11228 ft 293 kts 329°
2026-05-05 14:13 14.12967 120.98155 10852 ft 291 kts 330°
2026-05-05 14:13 14.14683 120.97055 10488 ft 290 kts 330°
2026-05-05 14:13 14.16385 120.95950 10116 ft 288 kts 329°
2026-05-05 14:14 14.18055 120.94849 9940 ft 279 kts 329°
2026-05-05 14:14 14.19683 120.93767 9658 ft 275 kts 329°
2026-05-05 14:14 14.21275 120.92707 9306 ft 268 kts 329°
2026-05-05 14:14 14.22823 120.91676 9096 ft 261 kts 329°
2026-05-05 14:15 14.24318 120.90667 8971 ft 248 kts 327°
2026-05-05 14:15 14.25589 120.89521 8918 ft 246 kts 309°
2026-05-05 14:15 14.26283 120.87921 8810 ft 249 kts 277°
2026-05-05 14:15 14.26124 120.86161 8540 ft 249 kts 249°
2026-05-05 14:16 14.25355 120.84572 8266 ft 247 kts 239°
2026-05-05 14:16 14.24479 120.83037 7990 ft 246 kts 239°
2026-05-05 14:16 14.23629 120.81516 7731 ft 244 kts 240°
2026-05-05 14:16 14.22793 120.79997 7474 ft 243 kts 241°
2026-05-05 14:17 14.22131 120.78414 7202 ft 242 kts 257°
2026-05-05 14:17 14.22144 120.76700 6963 ft 238 kts 290°
2026-05-05 14:17 14.22953 120.75253 6726 ft 233 kts 315°
2026-05-05 14:17 14.24182 120.74178 6478 ft 228 kts 330°
2026-05-05 14:18 14.25542 120.73369 6231 ft 226 kts 334°
2026-05-05 14:18 14.26939 120.72602 5985 ft 225 kts 334°
2026-05-05 14:18 14.28315 120.71830 5743 ft 225 kts 334°
2026-05-05 14:18 14.29674 120.71047 5507 ft 225 kts 334°
2026-05-05 14:19 14.31101 120.70394 5277 ft 221 kts 350°
2026-05-05 14:19 14.32598 120.70444 5194 ft 215 kts 23°
2026-05-05 14:19 14.33860 120.71256 4980 ft 215 kts 48°
2026-05-05 14:19 14.34632 120.72548 4741 ft 212 kts 67°
2026-05-05 14:20 14.35232 120.73950 4496 ft 211 kts 64°
2026-05-05 14:20 14.35912 120.75269 4270 ft 209 kts 61°
2026-05-05 14:20 14.36628 120.76554 4052 ft 205 kts 60°
2026-05-05 14:20 14.37345 120.77824 3826 ft 203 kts 60°
2026-05-05 14:21 14.38052 120.79083 3610 ft 200 kts 60°
2026-05-05 14:21 14.38740 120.80312 3390 ft 198 kts 61°
2026-05-05 14:21 14.39431 120.81543 3177 ft 195 kts 61°
2026-05-05 14:21 14.40097 120.82731 3001 ft 190 kts 61°
2026-05-05 14:22 14.40751 120.83887 2994 ft 184 kts 60°
2026-05-05 14:22 14.41412 120.85053 2862 ft 191 kts 61°
2026-05-05 14:22 14.42073 120.86257 2548 ft 194 kts 61°
2026-05-05 14:22 14.42723 120.87416 2680 ft 178 kts 60°
2026-05-05 14:23 14.43386 120.88560 2723 ft 191 kts 60°
2026-05-05 14:23 14.44081 120.89736 2409 ft 190 kts 59°
2026-05-05 14:23 14.44742 120.90823 2364 ft 172 kts 59°
2026-05-05 14:23 14.45357 120.91861 2038 ft 166 kts 60°
2026-05-05 14:24 14.45895 120.92818 1872 ft 143 kts 61°
2026-05-05 14:24 14.46362 120.93700 1591 ft 136 kts 64°
2026-05-05 14:24 14.46804 120.94549 1307 ft 132 kts 62°
2026-05-05 14:24 14.47255 120.95390 1104 ft 133 kts 64°
2026-05-05 14:25 14.47684 120.96236 943 ft 134 kts 62°
2026-05-05 14:25 14.48146 120.97072 760 ft 133 kts 61°
2026-05-05 14:25 14.48614 120.97898 575 ft 132 kts 62°
2026-05-05 14:25 14.49091 120.98739 436 ft 138 kts 64°
2026-05-05 14:26 14.49564 120.99609 245 ft 138 kts 62°
2026-05-05 14:26 14.50027 121.00449 89 ft 130 kts 63°
2026-05-05 14:26 14.50392 121.01107 82 ft 70 kts 61°
2026-05-05 14:26 14.50550 121.01399 82 ft 39 kts 60°
2026-05-05 14:27 14.50672 121.01614 82 ft 30 kts 54°
2026-05-05 14:27 14.50796 121.01745 82 ft 21 kts 38°
2026-05-05 14:27 14.50868 121.01790 82 ft 8 kts
2026-05-05 14:27 14.50920 121.01758 82 ft 8 kts 316°
2026-05-05 14:28 14.50971 121.01704 82 ft 16 kts 314°
2026-05-05 14:28 14.51067 121.01605 82 ft 20 kts 314°
2026-05-05 14:28 14.51160 121.01508 82 ft 15 kts 315°
2026-05-05 14:28 14.51211 121.01457 82 ft 7 kts 315°
2026-05-05 14:29 14.51235 121.01433 82 ft 0 kts 320°
2026-05-05 14:29 14.51240 121.01429 82 ft 4 kts 323°
2026-05-05 14:29 14.51280 121.01429 82 ft 6 kts 36°
2026-05-05 14:30 14.51310 121.01463 82 ft 6 kts 49°
2026-05-05 14:30 14.51354 121.01516 82 ft 15 kts 50°
2026-05-05 14:30 14.51413 121.01579 82 ft 9 kts 37°
2026-05-05 14:30 14.51469 121.01577 82 ft 7 kts 318°
2026-05-05 14:31 14.51500 121.01553 82 ft 4 kts 355°
2026-05-05 14:31 14.51525 121.01572 82 ft 4 kts 46°
2026-05-05 14:31 14.51548 121.01597 82 ft 4 kts 44°
2026-05-05 14:31 14.51567 121.01615 82 ft 0 kts 43°
2026-05-05 14:32 14.51568 121.01615 82 ft 0 kts 43°